KE8FSY Weather Reports


time (UTC)temp
F
wind
direction
speed
knots
gust
knots
rain 1hr
in
rain 24hr
in
rain mn
in
humidity
%
barometer
mb
20260504202504 74 277 1.7 3.5 0.00 0.00 0.00 53 1009.6
20260504202006 74 245 0.9 7.0 0.00 0.00 0.00 52 1009.6
20260504201512 73 218 1.7 7.8 0.00 0.00 0.00 52 1009.6
20260504201014 73 245 1.7 7.8 0.00 0.00 0.00 52 1009.7
20260504200507 73 185 2.6 5.2 0.00 0.00 0.00 53 1009.7
20260504200017 72 248 0.9 7.8 0.00 0.00 0.00 52 1009.8
20260504195508 72 236 0.9 8.7 0.00 0.00 0.00 53 1009.9
20260504195009 72 182 3.5 9.6 0.00 0.00 0.00 52 1010.0
20260504194522 72 235 3.5 10.4 0.00 0.00 0.00 51 1010.0
20260504194010 72 274 3.5 10.4 0.00 0.00 0.00 51 1010.1
20260504193507 72 253 1.7 9.6 0.00 0.00 0.00 54 1010.2
20260504193013 71 266 2.6 9.6 0.00 0.00 0.00 51 1010.2
20260504192504 71 249 1.7 7.8 0.00 0.00 0.00 53 1010.2
20260504192007 71 251 1.7 7.8 0.00 0.00 0.00 53 1010.4
20260504191521 70 228 2.6 7.8 0.00 0.00 0.00 53 1010.4
20260504191006 70 264 3.5 7.0 0.00 0.00 0.00 57 1010.5
20260504190504 69 192 1.7 5.2 0.00 0.00 0.00 57 1010.4
20260504190016 68 206 1.7 7.8 0.00 0.00 0.00 57 1010.5
20260504185507 68 249 4.3 7.8 0.00 0.00 0.00 56 1010.6
20260504185006 68 195 1.7 4.3 0.00 0.00 0.00 61 1010.7
20260504184519 68 240 0.9 4.3 0.00 0.00 0.00 62 1011.0
20260504183510 68 237 1.7 5.2 0.00 0.00 0.00 58 1011.1
20260504183030 68 256 1.7 5.2 0.00 0.00 0.00 56 1011.1
20260504182510 69 131 0.9 4.3 0.00 0.00 0.00 56 1011.0
20260504182006 70 237 0.9 4.3 0.00 0.00 0.00 55 1011.7
20260504181510 70 280 1.7 4.3 0.00 0.00 0.00 52 1012.0
20260504181004 71 249 2.6 4.3 0.00 0.00 0.00 50 1011.8
20260504180509 71 242 1.7 8.7 0.00 0.00 0.00 49 1011.5
20260504180013 72 254 2.6 8.7 0.00 0.00 0.00 48 1011.5
20260504175505 72 247 1.7 8.7 0.00 0.00 0.00 49 1011.3
20260504175006 73 251 1.7 8.7 0.00 0.00 0.00 49 1011.2
20260504174517 73 263 2.6 7.0 0.00 0.00 0.00 1011.0
20260504174010 73 241 2.6 10.4 0.00 0.00 0.00 1010.9
20260504173021 72 299 1.7 5.2 0.00 0.00 0.00 52 1010.8
20260504172507 72 240 1.7 5.2 0.00 0.00 0.00 52 1010.8
20260504172008 71 237 1.7 5.2 0.00 0.00 0.00 51 1010.8
20260504171508 70 258 1.7 8.7 0.00 0.00 0.00 51 1010.9
20260504171006 70 177 0.9 8.7 0.00 0.00 0.00 54 1010.8
20260504170505 69 255 1.7 6.1 0.00 0.00 0.00 54 1011.0
20260504151014 62 237 0.0 4.3 0.00 0.00 0.00 66 1012.6
20260504150514 62 297 1.7 6.1 0.00 0.00 0.00 65 1012.4
20260504141010 57 230 1.7 4.3 0.00 0.00 0.00 72 1013.4
20260504140516 57 233 0.9 4.3 0.00 0.00 0.00 73 1013.5
20260504130508 56 260 1.7 4.3 0.00 0.00 0.00 65 1013.8
20260504110506 50 296 0.0 2.6 0.00 0.00 0.00 65 1013.0
20260504100510 50 289 0.0 1.7 0.00 0.00 0.00 64 1013.0
20260504081510 48 309 0.0 1.7 0.00 0.00 0.00 68 1013.6
20260504081004 48 309 0.0 1.7 0.00 0.00 0.00 67 1013.6
20260504080507 49 309 0.0 1.7 0.00 0.00 0.00 65 1013.6
20260504050511 53 273 0.0 1.7 0.00 0.00 0.00 60 1014.8
20260504045506 54 273 0.0 2.6 0.00 0.00 0.00 68 1014.6
20260504045006 54 267 0.9 2.6 0.00 0.00 0.00 63 1014.8
20260504044532 54 299 0.0 1.7 0.00 0.00 0.00 70 1015.1
20260504044012 54 299 0.0 1.7 0.00 0.00 0.00 68 1015.1
20260504043508 54 299 0.0 1.7 0.00 0.00 0.00 67 1015.3
20260504043016 54 299 0.0 1.7 0.00 0.00 0.00 66 1015.3
20260504042508 54 299 0.0 1.7 0.00 0.00 0.00 66 1015.4
20260504042010 54 299 0.0 1.7 0.00 0.00 0.00 65 1015.4
20260504041522 54 299 0.0 3.5 0.00 0.00 0.00 64 1015.4
20260504041010 54 299 0.9 3.5 0.00 0.00 0.00 66 1015.7
20260504040510 54 351 0.0 1.7 0.00 0.00 0.00 64 1015.5
20260504040026 54 351 0.0 0.0 0.00 0.00 0.00 65 1015.5
20260504035511 54 351 0.0 1.7 0.00 0.00 0.00 64 1015.4
20260504035012 55 351 0.0 1.7 0.00 0.00 0.00 65 1015.7
20260504034526 55 351 0.0 1.7 0.00 0.00 0.00 64 1015.7
20260504034017 55 351 0.0 1.7 0.00 0.00 0.00 61 1015.6
20260504033509 55 86 0.0 1.7 0.00 0.00 0.00 62 1015.5
20260504033031 55 86 0.0 0.9 0.00 0.00 0.00 60 1015.4
20260504032507 55 86 0.0 0.0 0.00 0.00 0.00 58 1015.4
20260504032009 55 86 0.0 1.7 0.00 0.00 0.00 58 1015.5
20260504031521 55 86 0.0 1.7 0.00 0.00 0.00 56 1015.4
20260504031007 55 86 0.0 2.6 0.00 0.00 0.00 58 1015.3
20260504030508 55 87 0.0 2.6 0.00 0.00 0.00 60 1015.3
20260504030026 55 303 0.0 1.7 0.00 0.00 0.00 59 1015.4
20260504025509 55 303 0.0 0.0 0.00 0.00 0.00 61 1015.5
20260504025010 56 303 0.0 0.0 0.00 0.00 0.00 58 1015.5
20260504024527 56 303 0.0 0.0 0.00 0.00 0.00 59 1015.6
20260504024006 56 303 0.0 1.7 0.00 0.00 0.00 58 1015.5
20260504023506 56 303 0.0 1.7 0.00 0.00 0.00 59 1015.4
20260504023028 56 303 0.0 1.7 0.00 0.00 0.00 58 1015.4
20260504022516 56 303 0.0 1.7 0.00 0.00 0.00 57 1015.4
20260504022010 56 303 0.0 1.7 0.00 0.00 0.00 54 1015.3
20260504021516 56 303 0.0 0.9 0.00 0.00 0.00 53 1015.2
20260504021009 56 303 0.0 1.7 0.00 0.00 0.00 53 1015.1
20260504020506 57 303 0.0 1.7 0.00 0.00 0.00 53 1015.1
20260504020028 57 303 0.0 1.7 0.00 0.00 0.00 53 1015.0
20260504015508 57 303 0.0 1.7 0.00 0.00 0.00 54 1014.9
20260504015021 57 303 0.0 0.9 0.00 0.00 0.00 53 1014.8
20260504014541 57 303 0.0 0.9 0.00 0.00 0.00 51 1014.6
20260504014004 57 303 0.0 1.7 0.00 0.00 0.00 49 1014.5
20260504013507 57 303 0.0 1.7 0.00 0.00 0.00 48 1014.5
20260504013013 58 303 0.0 1.7 0.00 0.00 0.00 48 1014.3
20260504012510 58 303 0.0 0.0 0.00 0.00 0.00 47 1014.3
20260504012008 58 303 0.0 0.0 0.00 0.00 0.00 47 1014.3
20260504011517 58 303 0.0 0.0 0.00 0.00 0.00 44 1014.5
20260504011010 58 303 0.0 0.0 0.00 0.00 0.00 46 1014.6
20260504010513 58 303 0.0 0.0 0.00 0.00 0.00 45 1014.6
20260504010018 59 303 0.0 0.0 0.00 0.00 0.00 45 1014.6
20260504005508 59 303 0.0 0.0 0.00 0.00 0.00 44 1014.7
20260504005010 59 303 0.0 0.0 0.00 0.00 0.00 43 1014.6
20260504004506 59 303 0.0 0.0 0.00 0.00 0.00 43 1014.7
20260504004004 60 303 0.0 0.0 0.00 0.00 0.00 41 1014.7
20260504003504 60 303 0.0 0.0 0.00 0.00 0.00 42 1014.7
20260504003010 60 303 0.0 0.0 0.00 0.00 0.00 42 1014.7
20260504002505 60 303 0.0 0.0 0.00 0.00 0.00 43 1014.7
20260504002006 61 303 0.0 1.7 0.00 0.00 0.00 39 1014.6
20260504001518 61 303 0.0 1.7 0.00 0.00 0.00 39 1014.6
20260504001007 61 303 0.0 1.7 0.00 0.00 0.00 41 1014.5
20260504000507 61 303 0.0 1.7 0.00 0.00 0.00 39 1014.6
20260504000035 61 303 0.0 1.7 0.00 0.00 0.00 38 1014.6
20260503235509 62 303 0.0 1.7 0.00 0.00 0.00 36 1014.6
20260503235007 62 316 0.0 1.7 0.00 0.00 0.00 36 1014.7
20260503234522 62 235 0.0 1.7 0.00 0.00 0.00 37 1014.6
20260503234009 62 234 0.0 1.7 0.00 0.00 0.00 36 1014.6
20260503233504 62 233 0.0 3.5 0.00 0.00 0.00 36 1014.5
20260503233008 62 233 1.7 3.5 0.00 0.00 0.00 33 1014.5
20260503232504 63 291 0.0 3.5 0.00 0.00 0.00 36 1014.6
20260503232007 63 293 0.0 4.3 0.00 0.00 0.00 37 1014.7
20260503231512 63 300 0.9 4.3 0.00 0.00 0.00 33 1014.7
20260503231006 63 286 1.7 4.3 0.00 0.00 0.00 33 1014.8
20260503230507 63 300 0.9 1.7 0.00 0.00 0.00 36 1014.9
20260503230018 63 301 0.0 1.7 0.00 0.00 0.00 35 1014.9
20260503225511 63 260 0.9 2.6 0.00 0.00 0.00 34 1015.0
20260503225006 63 293 0.9 6.1 0.00 0.00 0.00 34 1015.0
20260503224521 63 292 0.9 8.7 0.00 0.00 0.00 33 1015.3
20260503224009 63 283 3.5 8.7 0.00 0.00 0.00 32 1015.3
20260503223507 63 292 1.7 6.1 0.00 0.00 0.00 32 1015.1
20260503223026 64 253 2.6 6.1 0.00 0.00 0.00 32 1015.2
20260503222504 64 288 2.6 7.8 0.00 0.00 0.00 31 1015.4
20260503222005 64 270 0.9 7.8 0.00 0.00 0.00 34 1015.3
20260503221510 64 272 0.9 3.5 0.00 0.00 0.00 33 1015.3
20260503221006 64 239 0.9 3.5 0.00 0.00 0.00 34 1015.3
20260503220504 64 243 1.7 2.6 0.00 0.00 0.00 33 1015.2
20260503220019 64 239 0.0 2.6 0.00 0.00 0.00 35 1015.3
20260503215507 64 228 0.9 3.5 0.00 0.00 0.00 35 1015.3
20260503215011 64 256 0.9 3.5 0.00 0.00 0.00 34 1015.4
20260503214529 64 260 1.7 6.1 0.00 0.00 0.00 33 1015.4
20260503214007 64 243 2.6 6.1 0.00 0.00 0.00 32 1015.4
20260503213512 64 257 1.7 3.5 0.00 0.00 0.00 33 1015.4
20260503213028 64 237 1.7 4.3 0.00 0.00 0.00 34 1015.5
20260503212517 64 247 0.9 6.1 0.00 0.00 0.00 35 1015.4
20260503212009 63 272 1.7 6.1 0.00 0.00 0.00 34 1015.5
20260503211511 63 239 1.7 6.1 0.00 0.00 0.00 32 1015.5
20260503211004 63 220 0.9 7.8 0.00 0.00 0.00 34 1015.6
20260503210505 63 266 2.6 10.4 0.00 0.00 0.00 32 1015.7
20260503210035 63 243 1.7 10.4 0.00 0.00 0.00 34 1015.8
20260503205506 63 262 0.9 3.5 0.00 0.00 0.00 34 1015.7
20260503205007 63 250 1.7 4.3 0.00 0.00 0.00 34 1015.7
20260503204518 63 267 1.7 6.1 0.00 0.00 0.00 34 1015.8
20260503204010 63 273 1.7 6.1 0.00 0.00 0.00 34 1015.9
20260503203507 63 254 2.6 6.1 0.00 0.00 0.00 33 1016.0
20260503203020 63 289 1.7 4.3 0.00 0.00 0.00 34 1016.1